This demonstration page uses our WeatherBlox Daily Observations layout. Learn more.

Left ArrowRight Arrow

39.92423, -83.80882

Hourly Observations for May 25, 2020

Temp ( °F °C ) Dew Point ( °F °C ) Humidity (%) Winds ( mph kmh ) Pressure ( in mb ) Visibility ( mi km ) Precip ( " mm )
12:56 am 00:56 Clear 68 20 65 18.3 90 90 Calm 30.02 1017 10 16.0934 0 0
1:56 am 01:56 Clear 67 19.4 64 17.8 91 91 Calm 30.01 1016 10 16.0934 0 0
2:56 am 02:56 Clear 67 19.4 65 18.3 93 93 WNW 3 6 30.01 1016 10 16.0934 0 0
3:56 am 03:56 Clear 66 18.9 66 18.9 100 100 Calm 30.02 1017 10 16.0934 0 0
4:56 am 04:56 Clear 65 18.3 65 18.3 100 100 Calm 30.01 1016 10 16.0934 0 0
5:56 am 05:56 Clear 63 17.2 63 17.2 100 100 SE 7 11 30.01 1016 10 16.0934 0 0
6:56 am 06:56 Sunny 66 18.9 66 18.9 100 100 SSE 7 11 30.04 1017 10 16.0934 0 0
7:56 am 07:56 Sunny 70 21.1 66 18.9 87 87 SSW 7 11 30.05 1018 10 16.0934 0 0
8:56 am 08:56 Sunny 74 23.3 67 19.4 79 79 SW 5 7 30.07 1018 10 16.0934 0 0
9:56 am 09:56 Sunny 77 25 69 20.6 77 77 Calm 30.09 1019 10 16.0934 0 0
10:56 am 10:56 Sunny 80 26.7 69 20.6 69 69 Calm 30.08 1019 10 16.0934 0 0
11:56 am 11:56 Mostly Sunny 83 28.3 66 18.9 57 57 Calm 30.07 1018 10 16.0934 0 0
12:56 pm 12:56 Mostly Cloudy 83 28.3 68 20 61 61 VRB 3 6 30.07 1018 9 14.48406 0 0
1:56 pm 13:56 Mostly Cloudy 83 28.3 67 19.4 59 59 SE 10 17 30.05 1018 10 16.0934 0 0
2:56 pm 14:56 Cloudy 85 29.4 68 20 57 57 SE 10 17 30.03 1017 10 16.0934 0 0
3:56 pm 15:56 Cloudy with Rain 74 23.3 70 21.1 88 88 WSW 15 24 30.06 1018 9 14.48406 0.001 0.001
4:03 pm 16:03 Cloudy with Heavy Rain 72 22 72 22 100 100 SW 17 28 30.04 1017 4 6.43736 0.001 0.001
4:13 pm 16:13 Cloudy with Heavy Rain 70 21 70 21 100 100 WSW 13 20 30.05 1018 2.5 4.02335 0 0
4:22 pm 16:22 Cloudy with Heavy Rain 70 21 70 21 100 100 SSW 6 9 30.06 1018 4 6.43736 0 0
4:56 pm 16:56 Cloudy with Light Rain 70 21.1 70 21.1 100 100 Calm 30.06 1018 7 11.26538 0 0
5:56 pm 17:56 Sunny 72 22.2 72 22.2 100 100 SSE 6 9 30.05 1018 10 16.0934 0 0
6:56 pm 18:56 Mostly Sunny 72 22.2 72 22.2 100 100 NNE 5 7 30.04 1017 10 16.0934 0 0
7:56 pm 19:56 Sunny 72 22.2 72 22.2 100 100 Calm 30.03 1017 10 16.0934 0 0
8:56 pm 20:56 Clear 71 21.7 71 21.7 100 100 Calm 30.04 1017 10 16.0934 0 0
9:56 pm 21:56 Clear 69 20.6 69 20.6 100 100 ESE 3 6 30.05 1018 10 16.0934 0 0
10:56 pm 22:56 Clear 67 19.4 67 19.4 100 100 E 5 7 30.06 1018 10 16.0934 0 0
11:56 pm 23:56 Clear 67 19.4 67 19.4 100 100 E 3 6 30.05 1018 10 16.0934 0 0

Powered by AerisWeather